TimeCDT,TemperatureF,Dew PointF,Humidity,Sea Level PressureIn,VisibilityMPH,Wind Direction,Wind SpeedMPH,Gust SpeedMPH,PrecipitationIn,Events,Conditions,WindDirDegrees,DateUTC
12:53 AM,42.1,28.0,58,30.05,10.0,East,10.4,17.3,N/A,,Partly Cloudy,100,2013-04-06 05:53:00
1:53 AM,39.9,26.1,58,30.04,10.0,Variable,5.8,-,N/A,,Mostly Cloudy,0,2013-04-06 06:53:00
2:53 AM,39.0,23.0,53,30.02,10.0,East,5.8,-,N/A,,Overcast,80,2013-04-06 07:53:00
3:53 AM,39.0,19.0,45,29.98,10.0,East,6.9,-,N/A,,Mostly Cloudy,80,2013-04-06 08:53:00
4:53 AM,39.0,16.0,39,29.96,10.0,ESE,6.9,-,N/A,,Scattered Clouds,110,2013-04-06 09:53:00
5:53 AM,39.9,17.1,40,29.93,10.0,Variable,5.8,18.4,N/A,,Scattered Clouds,0,2013-04-06 10:53:00
6:53 AM,39.9,19.0,43,29.92,10.0,Variable,4.6,-,N/A,,Overcast,0,2013-04-06 11:53:00
7:53 AM,39.0,23.0,53,29.85,10.0,Variable,5.8,23.0,0.00,Rain,Light Rain,0,2013-04-06 12:53:00
8:53 AM,42.1,26.1,53,29.81,10.0,Variable,6.9,16.1,N/A,,Partly Cloudy,0,2013-04-06 13:53:00
9:53 AM,44.1,28.0,53,29.78,10.0,South,6.9,-,N/A,,Scattered Clouds,190,2013-04-06 14:53:00
10:53 AM,50.0,30.0,46,29.74,10.0,South,8.1,-,N/A,,Clear,190,2013-04-06 15:53:00
11:53 AM,57.9,33.1,39,29.70,10.0,SSW,10.4,18.4,N/A,,Clear,200,2013-04-06 16:53:00
12:53 PM,60.1,36.0,41,29.66,10.0,South,8.1,19.6,N/A,,Clear,190,2013-04-06 17:53:00
1:53 PM,61.0,37.0,41,29.62,10.0,South,13.8,18.4,N/A,,Mostly Cloudy,180,2013-04-06 18:53:00
2:53 PM,61.0,41.0,48,29.60,10.0,South,9.2,21.9,0.00,,Overcast,190,2013-04-06 19:53:00
3:53 PM,62.1,41.0,46,29.57,10.0,SSW,9.2,19.6,N/A,,Overcast,200,2013-04-06 20:53:00
4:53 PM,61.0,41.0,48,29.55,10.0,South,9.2,-,0.00,,Overcast,190,2013-04-06 21:53:00
5:53 PM,55.9,46.9,72,29.58,9.0,SW,10.4,18.4,0.01,Rain,Light Rain,230,2013-04-06 22:53:00
6:53 PM,55.9,48.0,75,29.57,10.0,SSW,9.2,-,0.00,,Overcast,210,2013-04-06 23:53:00
7:53 PM,53.1,48.9,86,29.57,10.0,WSW,5.8,-,0.01,,Overcast,250,2013-04-07 00:53:00
8:20 PM,53.6,48.2,82,29.57,10.0,WSW,6.9,-,0.00,Rain,Light Rain,240,2013-04-07 01:20:00
8:42 PM,53.6,50.0,88,29.58,6.0,West,5.8,-,0.03,Rain,Light Rain,260,2013-04-07 01:42:00
8:53 PM,52.0,48.0,86,29.60,7.0,West,8.1,19.6,0.04,Rain,Light Rain,260,2013-04-07 01:53:00
9:28 PM,50.0,46.4,87,29.60,8.0,SW,6.9,-,0.01,,Overcast,220,2013-04-07 02:28:00
9:42 PM,50.0,46.4,87,29.60,8.0,West,5.8,-,0.01,,Overcast,260,2013-04-07 02:42:00
9:53 PM,50.0,46.0,86,29.63,8.0,West,12.7,19.6,0.01,,Overcast,270,2013-04-07 02:53:00
10:53 PM,48.9,44.1,83,29.65,5.0,West,11.5,18.4,N/A,,Haze,280,2013-04-07 03:53:00
11:19 PM,48.2,42.8,82,29.64,7.0,WNW,17.3,24.2,N/A,,Mostly Cloudy,290,2013-04-07 04:19:00
11:26 PM,46.4,39.2,76,29.65,8.0,WNW,16.1,27.6,N/A,,Scattered Clouds,290,2013-04-07 04:26:00
11:53 PM,46.0,39.0,76,29.68,8.0,WNW,10.4,18.4,N/A,,Scattered Clouds,300,2013-04-07 04:53:00